Location: Chillicothe
(39.7950°N, 93.5520°W)
Time: 09:49:43
(UTC-05:00)

Explorer 11/Cluster Stage 4 - All Passes

Search period start: 21 October 2019 00:00
Search period end: 31 October 2019 00:00
Orbit: 467 x 1259 km, 28.8° (Epoch: 20 October)

Date Brightness Start Highest point End Pass type
(mag) Time Alt. Az. Time Alt. Az. Time Alt. Az.
21 Oct - 10:21:23 10° SSW 10:23:03 13° S 10:24:46 10° SE daylight
21 Oct - 12:08:11 10° SW 12:10:37 16° S 12:13:15 10° SE daylight
21 Oct - 13:56:54 10° SSW 13:58:20 11° SSW 13:59:49 10° S daylight
22 Oct - 10:10:36 10° SSW 10:12:27 13° S 10:14:18 10° SE daylight
22 Oct - 11:57:49 10° SW 12:00:02 15° S 12:02:21 10° SSE daylight
23 Oct - 09:59:51 10° SSW 10:01:51 14° S 10:03:50 10° SE daylight
23 Oct - 11:47:30 10° SW 11:49:25 14° S 11:51:26 10° SSE daylight
24 Oct - 09:49:07 10° SSW 09:51:15 15° S 09:53:21 10° SE daylight
24 Oct - 11:37:14 10° SW 11:38:49 12° S 11:40:27 10° SSE daylight
25 Oct - 07:51:42 10° S 07:53:02 11° SSE 07:54:19 10° SSE daylight
25 Oct - 09:38:23 10° SW 09:40:39 15° S 09:42:52 10° SE daylight
25 Oct - 11:27:05 10° SSW 11:28:13 11° SSW 11:29:20 10° S daylight
26 Oct - 07:40:17 10° SSW 07:42:25 13° S 07:44:25 10° SE daylight
26 Oct - 09:27:39 10° SW 09:30:04 16° S 09:32:22 10° SE daylight
27 Oct - 07:29:04 10° SSW 07:31:48 15° S 07:34:16 10° SE daylight
27 Oct - 09:16:54 10° SW 09:19:28 16° S 09:21:50 10° SE daylight
28 Oct - 05:32:12 10° S 05:33:19 11° SSE 05:34:23 10° SSE visible
28 Oct - 07:17:57 10° SW 07:21:10 18° S 07:24:02 10° SE daylight
28 Oct - 09:06:10 10° SW 09:08:51 16° S 09:11:19 10° SSE daylight
29 Oct - 05:19:59 10° SSW 05:22:37 13° SSE 05:25:03 10° SE visible
29 Oct - 07:06:52 10° SW 07:10:32 20° S 07:13:43 10° SE visible
29 Oct - 08:55:26 10° SW 08:58:13 17° S 09:00:46 10° SSE daylight
30 Oct - 05:08:21 10° SSW 05:11:55 16° SSE 05:15:06 10° SE visible
30 Oct - 06:55:50 10° SW 06:59:53 22° S 07:03:22 10° SE visible
30 Oct - 08:44:41 10° SW 08:47:35 17° SSW 08:50:13 10° SSE daylight
